WELCOME TO AIR WEST FLIGHT SUPPORT

Slider

THE RIGHT CHOICE FOR THE BEST SERVICE

OUR GOAL IS TO BE THE MOST ACCOMMODATING FBO IN LETHBRIDGE, AB. WITH EFFICIENT AND PROFFESSIONAL SERVICE

 WE HAVE GOT IT ALL!

  • Great Attitude
  • The Right Equipment
  • Large Facilities
  • Competitive Fuel Prices
  • In-House Aircraft Maintenance
  • In-House Flight Training, Aircraft Rentals
  • Aircraft Sales And Much  More!

Social LikeBox & Feed plugin Powered By Weblizar

 


We are located at the Lethbridge County Airport (CYQL) on Ramp 2 at the east end of Taxiway C.   Lethbridge is a key point of entry where you can clear customs using
CANPASS.  The Airport is approximately 5 km south of the City of Lethbridge, which offers convenient access to nearby towns such as Cardston, Crowsnest Pass, Coaldale, Fort MacLeod, Milk River, Pincher Creek and Taber.  Lethbridge and its surrounding area is a great tourist destination

 


Click on image to enlarge

Available data for CYQL from the past 2 hours
LETHBRIDGE VOR, AB
Metar
CYQL 161300Z 26019G27KT 25SM FEW110 BKN260 11/M02 A2981 RMK AC2CI3 SLP107 DENSITY ALT 3400FT

13:00 UTC

Wind: 260° 19kt

Visibility: 25 SM

Sky: FEW 11000 ft

Temp: 11 deg C / 51.8 deg F

Dewpoint: -2 deg C / 28.4 deg F

Pressure: 29.81 inHg

TAF
TAF CYQL 161138Z 1612/1624 24015G25KT P6SM SCT220 RMK FCST BASED ON AUTO OBS. NXT FCST BY 161800Z